Location: Poprad
(49.0500°N, 20.3000°E)
Time: 00:45:34
(UTC+02:00)

Oscar 11 - Pass Details

Date: 22 April 2024
Orbit: 603 x 614 km, 97.7° (Epoch: 17 May)

Event Time Altitude Azimuth Distance (km) Brightness Sun altitude
Rises 04:35:03 0° 14° (NNE) 2,896 11.3 -9.5°
Reaches altitude 10° 04:37:15 10° 16° (NNE) 1,984 10.4 -9.1°
Maximum altitude 04:41:34 78° 103° (ESE) 632 7.2 -8.5°
Drops below altitude 10° 04:45:50 10° 190° (S) 1,961 9.3 -7.9°
Sets 04:48:00 0° 192° (SSW) 2,858 10.1 -7.6°
